owner,sensor,date,latitude,longitude,vertical_datum,sea_water_temperature,qcFlag 
WAVCIS,ioos:station:WAVCIS:CSI15:1,2009-07-01T00:00:00Z,28.8332,-90.8320,10.0,25.34,11111222 
WAVCIS,ioos:station:WAVCIS:CSI15:1,2009-07-01T01:00:00Z,28.8332,-90.8320,10.0,25.72,11111222 
WAVCIS,ioos:station:WAVCIS:CSI15:1,2009-07-01T02:00:00Z,28.8332,-90.8320,10.0,25.4,11111222 
WAVCIS,ioos:station:WAVCIS:CSI15:1,2009-07-01T03:00:00Z,28.8332,-90.8320,10.0,26.0,11111222 
WAVCIS,ioos:station:WAVCIS:CSI15:1,2009-07-01T04:00:00Z,28.8332,-90.8320,10.0,25.85,11111222 
WAVCIS,ioos:station:WAVCIS:CSI15:1,2009-07-01T05:00:00Z,28.8332,-90.8320,10.0,25.58,11111222 
WAVCIS,ioos:station:WAVCIS:CSI15:1,2009-07-01T06:00:00Z,28.8332,-90.8320,10.0,25.39,11111222 
WAVCIS,ioos:station:WAVCIS:CSI15:1,2009-07-01T07:00:00Z,28.8332,-90.8320,10.0,26.15,11111222 
WAVCIS,ioos:station:WAVCIS:CSI15:1,2009-07-01T08:00:00Z,28.8332,-90.8320,10.0,25.57,11111222 
WAVCIS,ioos:station:WAVCIS:CSI15:1,2009-07-01T09:00:00Z,28.8332,-90.8320,10.0,26.02,11111222 
WAVCIS,ioos:station:WAVCIS:CSI15:1,2009-07-01T10:00:00Z,28.8332,-90.8320,10.0,26.13,11111222 
WAVCIS,ioos:station:WAVCIS:CSI15:1,2009-07-01T11:00:00Z,28.8332,-90.8320,10.0,26.03,11111222 
WAVCIS,ioos:station:WAVCIS:CSI15:1,2009-07-01T12:00:00Z,28.8332,-90.8320,10.0,26.9,11111222 
WAVCIS,ioos:station:WAVCIS:CSI15:1,2009-07-01T13:00:00Z,28.8332,-90.8320,10.0,26.12,11111222 
WAVCIS,ioos:station:WAVCIS:CSI15:1,2009-07-01T14:00:00Z,28.8332,-90.8320,10.0,25.67,11111222 
WAVCIS,ioos:station:WAVCIS:CSI15:1,2009-07-01T15:00:00Z,28.8332,-90.8320,10.0,26.11,11111222 
WAVCIS,ioos:station:WAVCIS:CSI15:1,2009-07-01T16:00:00Z,28.8332,-90.8320,10.0,25.85,11111222 
WAVCIS,ioos:station:WAVCIS:CSI15:1,2009-07-01T17:00:00Z,28.8332,-90.8320,10.0,26.4,11111222 
WAVCIS,ioos:station:WAVCIS:CSI15:1,2009-07-01T18:00:00Z,28.8332,-90.8320,10.0,26.01,11111222 
WAVCIS,ioos:station:WAVCIS:CSI15:1,2009-07-01T19:00:00Z,28.8332,-90.8320,10.0,26.49,11111222 
WAVCIS,ioos:station:WAVCIS:CSI15:1,2009-07-01T20:00:00Z,28.8332,-90.8320,10.0,26.83,11111222 
WAVCIS,ioos:station:WAVCIS:CSI15:1,2009-07-01T21:00:00Z,28.8332,-90.8320,10.0,26.77,11111222 
WAVCIS,ioos:station:WAVCIS:CSI15:1,2009-07-01T22:00:00Z,28.8332,-90.8320,10.0,26.56,11111222 
WAVCIS,ioos:station:WAVCIS:CSI15:1,2009-07-01T23:00:00Z,28.8332,-90.8320,10.0,25.8,11111222 
WAVCIS,ioos:station:WAVCIS:CSI15:1,2009-07-02T00:00:00Z,28.8332,-90.8320,10.0,25.27,11111222 
WAVCIS,ioos:station:WAVCIS:CSI15:1,2009-07-02T01:00:00Z,28.8332,-90.8320,10.0,26.31,11111222 
WAVCIS,ioos:station:WAVCIS:CSI15:1,2009-07-02T02:00:00Z,28.8332,-90.8320,10.0,26.4,11111222 
WAVCIS,ioos:station:WAVCIS:CSI15:1,2009-07-02T03:00:00Z,28.8332,-90.8320,10.0,26.66,11111222 
WAVCIS,ioos:station:WAVCIS:CSI15:1,2009-07-02T04:00:00Z,28.8332,-90.8320,10.0,26.66,11111222 
WAVCIS,ioos:station:WAVCIS:CSI15:1,2009-07-02T05:00:00Z,28.8332,-90.8320,10.0,26.22,11111222 
WAVCIS,ioos:station:WAVCIS:CSI15:1,2009-07-02T06:00:00Z,28.8332,-90.8320,10.0,26.15,11111222 
WAVCIS,ioos:station:WAVCIS:CSI15:1,2009-07-02T07:00:00Z,28.8332,-90.8320,10.0,25.68,11111222 
WAVCIS,ioos:station:WAVCIS:CSI15:1,2009-07-02T08:00:00Z,28.8332,-90.8320,10.0,26.28,11111222 
WAVCIS,ioos:station:WAVCIS:CSI15:1,2009-07-02T09:00:00Z,28.8332,-90.8320,10.0,27.56,11111222 
WAVCIS,ioos:station:WAVCIS:CSI15:1,2009-07-02T10:00:00Z,28.8332,-90.8320,10.0,27.74,11111222 
WAVCIS,ioos:station:WAVCIS:CSI15:1,2009-07-02T11:00:00Z,28.8332,-90.8320,10.0,27.99,11111222 
WAVCIS,ioos:station:WAVCIS:CSI15:1,2009-07-02T12:00:00Z,28.8332,-90.8320,10.0,28.3,11111222 
WAVCIS,ioos:station:WAVCIS:CSI15:1,2009-07-02T13:00:00Z,28.8332,-90.8320,10.0,27.83,11111222 
WAVCIS,ioos:station:WAVCIS:CSI15:1,2009-07-02T14:00:00Z,28.8332,-90.8320,10.0,27.46,11111222 
WAVCIS,ioos:station:WAVCIS:CSI15:1,2009-07-02T15:00:00Z,28.8332,-90.8320,10.0,26.82,11111222 
WAVCIS,ioos:station:WAVCIS:CSI15:1,2009-07-02T16:00:00Z,28.8332,-90.8320,10.0,26.39,11111222 
WAVCIS,ioos:station:WAVCIS:CSI15:1,2009-07-02T17:00:00Z,28.8332,-90.8320,10.0,27.03,11111222 
WAVCIS,ioos:station:WAVCIS:CSI15:1,2009-07-02T18:00:00Z,28.8332,-90.8320,10.0,27.16,11111222 
WAVCIS,ioos:station:WAVCIS:CSI15:1,2009-07-02T19:00:00Z,28.8332,-90.8320,10.0,27.97,11111222 
WAVCIS,ioos:station:WAVCIS:CSI15:1,2009-07-02T20:00:00Z,28.8332,-90.8320,10.0,28.49,11111222 
WAVCIS,ioos:station:WAVCIS:CSI15:1,2009-07-02T21:00:00Z,28.8332,-90.8320,10.0,28.37,11111222 
WAVCIS,ioos:station:WAVCIS:CSI15:1,2009-07-02T22:00:00Z,28.8332,-90.8320,10.0,27.92,11111222 
WAVCIS,ioos:station:WAVCIS:CSI15:1,2009-07-02T23:00:00Z,28.8332,-90.8320,10.0,26.71,11111222 
WAVCIS,ioos:station:WAVCIS:CSI15:1,2009-07-03T00:00:00Z,28.8332,-90.8320,10.0,26.61,11111222 
WAVCIS,ioos:station:WAVCIS:CSI15:1,2009-07-03T01:00:00Z,28.8332,-90.8320,10.0,26.79,11111222 
WAVCIS,ioos:station:WAVCIS:CSI15:1,2009-07-03T02:00:00Z,28.8332,-90.8320,10.0,27.08,11111222 
WAVCIS,ioos:station:WAVCIS:CSI15:1,2009-07-03T03:00:00Z,28.8332,-90.8320,10.0,27.39,11111222 
WAVCIS,ioos:station:WAVCIS:CSI15:1,2009-07-03T04:00:00Z,28.8332,-90.8320,10.0,27.63,11111222 
WAVCIS,ioos:station:WAVCIS:CSI15:1,2009-07-03T05:00:00Z,28.8332,-90.8320,10.0,27.55,11111222 
WAVCIS,ioos:station:WAVCIS:CSI15:1,2009-07-03T06:00:00Z,28.8332,-90.8320,10.0,27.84,11111222 
WAVCIS,ioos:station:WAVCIS:CSI15:1,2009-07-03T07:00:00Z,28.8332,-90.8320,10.0,27.18,11111222 
WAVCIS,ioos:station:WAVCIS:CSI15:1,2009-07-03T08:00:00Z,28.8332,-90.8320,10.0,26.88,11111222 
WAVCIS,ioos:station:WAVCIS:CSI15:1,2009-07-03T09:00:00Z,28.8332,-90.8320,10.0,27.37,11111222 
WAVCIS,ioos:station:WAVCIS:CSI15:1,2009-07-03T10:00:00Z,28.8332,-90.8320,10.0,27.97,11111222 
WAVCIS,ioos:station:WAVCIS:CSI15:1,2009-07-03T11:00:00Z,28.8332,-90.8320,10.0,27.71,11111222 
WAVCIS,ioos:station:WAVCIS:CSI15:1,2009-07-03T12:00:00Z,28.8332,-90.8320,10.0,28.35,11111222 
WAVCIS,ioos:station:WAVCIS:CSI15:1,2009-07-03T13:00:00Z,28.8332,-90.8320,10.0,28.09,11111222 
WAVCIS,ioos:station:WAVCIS:CSI15:1,2009-07-03T14:00:00Z,28.8332,-90.8320,10.0,27.99,11111222 
WAVCIS,ioos:station:WAVCIS:CSI15:1,2009-07-03T15:00:00Z,28.8332,-90.8320,10.0,28.23,11111222 
WAVCIS,ioos:station:WAVCIS:CSI15:1,2009-07-03T16:00:00Z,28.8332,-90.8320,10.0,28.1,11111222 
WAVCIS,ioos:station:WAVCIS:CSI15:1,2009-07-03T17:00:00Z,28.8332,-90.8320,10.0,27.36,11111222 
WAVCIS,ioos:station:WAVCIS:CSI15:1,2009-07-03T18:00:00Z,28.8332,-90.8320,10.0,27.27,11111222 
WAVCIS,ioos:station:WAVCIS:CSI15:1,2009-07-03T19:00:00Z,28.8332,-90.8320,10.0,27.42,11111222 
WAVCIS,ioos:station:WAVCIS:CSI15:1,2009-07-03T20:00:00Z,28.8332,-90.8320,10.0,27.97,11111222 
WAVCIS,ioos:station:WAVCIS:CSI15:1,2009-07-03T21:00:00Z,28.8332,-90.8320,10.0,28.36,11111222 
WAVCIS,ioos:station:WAVCIS:CSI15:1,2009-07-03T22:00:00Z,28.8332,-90.8320,10.0,27.43,11111222 
WAVCIS,ioos:station:WAVCIS:CSI15:1,2009-07-03T23:00:00Z,28.8332,-90.8320,10.0,27.08,11111222 
WAVCIS,ioos:station:WAVCIS:CSI15:1,2009-07-04T00:00:00Z,28.8332,-90.8320,10.0,27.15,11111222 
WAVCIS,ioos:station:WAVCIS:CSI15:1,2009-07-04T01:00:00Z,28.8332,-90.8320,10.0,27.13,11111222 
WAVCIS,ioos:station:WAVCIS:CSI15:1,2009-07-04T02:00:00Z,28.8332,-90.8320,10.0,27.01,11111222 
WAVCIS,ioos:station:WAVCIS:CSI15:1,2009-07-04T03:00:00Z,28.8332,-90.8320,10.0,27.2,11111222 
WAVCIS,ioos:station:WAVCIS:CSI15:1,2009-07-04T04:00:00Z,28.8332,-90.8320,10.0,27.29,11111222 
WAVCIS,ioos:station:WAVCIS:CSI15:1,2009-07-04T05:00:00Z,28.8332,-90.8320,10.0,27.37,11111222 
WAVCIS,ioos:station:WAVCIS:CSI15:1,2009-07-04T06:00:00Z,28.8332,-90.8320,10.0,27.32,11111222 
WAVCIS,ioos:station:WAVCIS:CSI15:1,2009-07-04T07:00:00Z,28.8332,-90.8320,10.0,27.04,11111222 
WAVCIS,ioos:station:WAVCIS:CSI15:1,2009-07-04T08:00:00Z,28.8332,-90.8320,10.0,27.1,11111222 
WAVCIS,ioos:station:WAVCIS:CSI15:1,2009-07-04T09:00:00Z,28.8332,-90.8320,10.0,27.13,11111222 
WAVCIS,ioos:station:WAVCIS:CSI15:1,2009-07-04T10:00:00Z,28.8332,-90.8320,10.0,27.38,11111222 
WAVCIS,ioos:station:WAVCIS:CSI15:1,2009-07-04T11:00:00Z,28.8332,-90.8320,10.0,27.83,11111222 
WAVCIS,ioos:station:WAVCIS:CSI15:1,2009-07-04T12:00:00Z,28.8332,-90.8320,10.0,28.3,11111222 
WAVCIS,ioos:station:WAVCIS:CSI15:1,2009-07-04T13:00:00Z,28.8332,-90.8320,10.0,28.43,11111222 
WAVCIS,ioos:station:WAVCIS:CSI15:1,2009-07-04T14:00:00Z,28.8332,-90.8320,10.0,28.74,11111222 
WAVCIS,ioos:station:WAVCIS:CSI15:1,2009-07-04T15:00:00Z,28.8332,-90.8320,10.0,28.15,11111222 
WAVCIS,ioos:station:WAVCIS:CSI15:1,2009-07-04T16:00:00Z,28.8332,-90.8320,10.0,26.71,11111222 
WAVCIS,ioos:station:WAVCIS:CSI15:1,2009-07-04T17:00:00Z,28.8332,-90.8320,10.0,26.33,11111222 
WAVCIS,ioos:station:WAVCIS:CSI15:1,2009-07-04T18:00:00Z,28.8332,-90.8320,10.0,26.35,11111222 
WAVCIS,ioos:station:WAVCIS:CSI15:1,2009-07-04T19:00:00Z,28.8332,-90.8320,10.0,27.7,11111222 
WAVCIS,ioos:station:WAVCIS:CSI15:1,2009-07-04T20:00:00Z,28.8332,-90.8320,10.0,26.38,11111222 
WAVCIS,ioos:station:WAVCIS:CSI15:1,2009-07-04T21:00:00Z,28.8332,-90.8320,10.0,25.93,11111222 
WAVCIS,ioos:station:WAVCIS:CSI15:1,2009-07-04T22:00:00Z,28.8332,-90.8320,10.0,25.87,11111222 
WAVCIS,ioos:station:WAVCIS:CSI15:1,2009-07-04T23:00:00Z,28.8332,-90.8320,10.0,25.61,11111222 
WAVCIS,ioos:station:WAVCIS:CSI15:1,2009-07-05T00:00:00Z,28.8332,-90.8320,10.0,25.59,11111222 
WAVCIS,ioos:station:WAVCIS:CSI15:1,2009-07-05T01:00:00Z,28.8332,-90.8320,10.0,25.85,11111222 
WAVCIS,ioos:station:WAVCIS:CSI15:1,2009-07-05T02:00:00Z,28.8332,-90.8320,10.0,27.43,11111222 
WAVCIS,ioos:station:WAVCIS:CSI15:1,2009-07-05T03:00:00Z,28.8332,-90.8320,10.0,26.84,11111222 
WAVCIS,ioos:station:WAVCIS:CSI15:1,2009-07-05T04:00:00Z,28.8332,-90.8320,10.0,26.04,11111222 
WAVCIS,ioos:station:WAVCIS:CSI15:1,2009-07-05T05:00:00Z,28.8332,-90.8320,10.0,25.65,11111222 
WAVCIS,ioos:station:WAVCIS:CSI15:1,2009-07-05T06:00:00Z,28.8332,-90.8320,10.0,25.71,11111222 
WAVCIS,ioos:station:WAVCIS:CSI15:1,2009-07-05T07:00:00Z,28.8332,-90.8320,10.0,25.39,11111222 
WAVCIS,ioos:station:WAVCIS:CSI15:1,2009-07-05T08:00:00Z,28.8332,-90.8320,10.0,25.24,11111222 
WAVCIS,ioos:station:WAVCIS:CSI15:1,2009-07-05T09:00:00Z,28.8332,-90.8320,10.0,25.47,11111222 
WAVCIS,ioos:station:WAVCIS:CSI15:1,2009-07-05T10:00:00Z,28.8332,-90.8320,10.0,25.19,11111222 
WAVCIS,ioos:station:WAVCIS:CSI15:1,2009-07-05T11:00:00Z,28.8332,-90.8320,10.0,25.04,11111222 
WAVCIS,ioos:station:WAVCIS:CSI15:1,2009-07-05T12:00:00Z,28.8332,-90.8320,10.0,27.49,11111222 
WAVCIS,ioos:station:WAVCIS:CSI15:1,2009-07-05T13:00:00Z,28.8332,-90.8320,10.0,27.88,11111222 
WAVCIS,ioos:station:WAVCIS:CSI15:1,2009-07-05T14:00:00Z,28.8332,-90.8320,10.0,26.57,11111222 
WAVCIS,ioos:station:WAVCIS:CSI15:1,2009-07-05T15:00:00Z,28.8332,-90.8320,10.0,25.75,11111222 
WAVCIS,ioos:station:WAVCIS:CSI15:1,2009-07-05T16:00:00Z,28.8332,-90.8320,10.0,25.27,11111222 
WAVCIS,ioos:station:WAVCIS:CSI15:1,2009-07-05T17:00:00Z,28.8332,-90.8320,10.0,27.33,11111222 
WAVCIS,ioos:station:WAVCIS:CSI15:1,2009-07-05T18:00:00Z,28.8332,-90.8320,10.0,25.74,11111222 
WAVCIS,ioos:station:WAVCIS:CSI15:1,2009-07-05T19:00:00Z,28.8332,-90.8320,10.0,28.3,11111222 
WAVCIS,ioos:station:WAVCIS:CSI15:1,2009-07-05T20:00:00Z,28.8332,-90.8320,10.0,25.43,11111222 
WAVCIS,ioos:station:WAVCIS:CSI15:1,2009-07-05T21:00:00Z,28.8332,-90.8320,10.0,25.18,11111222 
WAVCIS,ioos:station:WAVCIS:CSI15:1,2009-07-05T22:00:00Z,28.8332,-90.8320,10.0,25.06,11111222 
WAVCIS,ioos:station:WAVCIS:CSI15:1,2009-07-05T23:00:00Z,28.8332,-90.8320,10.0,25.03,11111222 
WAVCIS,ioos:station:WAVCIS:CSI15:1,2009-07-06T00:00:00Z,28.8332,-90.8320,10.0,25.09,11111222 
WAVCIS,ioos:station:WAVCIS:CSI15:1,2009-07-06T01:00:00Z,28.8332,-90.8320,10.0,25.37,11111222 
WAVCIS,ioos:station:WAVCIS:CSI15:1,2009-07-06T02:00:00Z,28.8332,-90.8320,10.0,25.4,11111222 
WAVCIS,ioos:station:WAVCIS:CSI15:1,2009-07-06T03:00:00Z,28.8332,-90.8320,10.0,25.34,11111222 
WAVCIS,ioos:station:WAVCIS:CSI15:1,2009-07-06T04:00:00Z,28.8332,-90.8320,10.0,25.34,11111222 
WAVCIS,ioos:station:WAVCIS:CSI15:1,2009-07-06T05:00:00Z,28.8332,-90.8320,10.0,25.36,11111222 
WAVCIS,ioos:station:WAVCIS:CSI15:1,2009-07-06T06:00:00Z,28.8332,-90.8320,10.0,25.96,11111222 
WAVCIS,ioos:station:WAVCIS:CSI15:1,2009-07-06T07:00:00Z,28.8332,-90.8320,10.0,25.72,11111222 
WAVCIS,ioos:station:WAVCIS:CSI15:1,2009-07-06T08:00:00Z,28.8332,-90.8320,10.0,25.6,11111222 
WAVCIS,ioos:station:WAVCIS:CSI15:1,2009-07-06T09:00:00Z,28.8332,-90.8320,10.0,25.89,11111222 
WAVCIS,ioos:station:WAVCIS:CSI15:1,2009-07-06T10:00:00Z,28.8332,-90.8320,10.0,26.69,11111222 
WAVCIS,ioos:station:WAVCIS:CSI15:1,2009-07-06T11:00:00Z,28.8332,-90.8320,10.0,28.89,11111222 
WAVCIS,ioos:station:WAVCIS:CSI15:1,2009-07-06T12:00:00Z,28.8332,-90.8320,10.0,28.37,11111222 
WAVCIS,ioos:station:WAVCIS:CSI15:1,2009-07-06T13:00:00Z,28.8332,-90.8320,10.0,28.04,11111222 
WAVCIS,ioos:station:WAVCIS:CSI15:1,2009-07-06T14:00:00Z,28.8332,-90.8320,10.0,27.31,11111222 
WAVCIS,ioos:station:WAVCIS:CSI15:1,2009-07-06T15:00:00Z,28.8332,-90.8320,10.0,25.09,11111222 
WAVCIS,ioos:station:WAVCIS:CSI15:1,2009-07-06T16:00:00Z,28.8332,-90.8320,10.0,25.02,11111222 
WAVCIS,ioos:station:WAVCIS:CSI15:1,2009-07-06T17:00:00Z,28.8332,-90.8320,10.0,25.01,11111222 
WAVCIS,ioos:station:WAVCIS:CSI15:1,2009-07-06T18:00:00Z,28.8332,-90.8320,10.0,24.92,11111222 
WAVCIS,ioos:station:WAVCIS:CSI15:1,2009-07-06T19:00:00Z,28.8332,-90.8320,10.0,25.7,11111222 
WAVCIS,ioos:station:WAVCIS:CSI15:1,2009-07-06T20:00:00Z,28.8332,-90.8320,10.0,27.32,11111222 
WAVCIS,ioos:station:WAVCIS:CSI15:1,2009-07-06T21:00:00Z,28.8332,-90.8320,10.0,26.66,11111222 
WAVCIS,ioos:station:WAVCIS:CSI15:1,2009-07-06T22:00:00Z,28.8332,-90.8320,10.0,26.27,11111222 
WAVCIS,ioos:station:WAVCIS:CSI15:1,2009-07-06T23:00:00Z,28.8332,-90.8320,10.0,26.2,11111222 
WAVCIS,ioos:station:WAVCIS:CSI15:1,2009-07-07T00:00:00Z,28.8332,-90.8320,10.0,26.56,11111222 
WAVCIS,ioos:station:WAVCIS:CSI15:1,2009-07-07T01:00:00Z,28.8332,-90.8320,10.0,25.69,11111222 
WAVCIS,ioos:station:WAVCIS:CSI15:1,2009-07-07T02:00:00Z,28.8332,-90.8320,10.0,25.27,11111222 
WAVCIS,ioos:station:WAVCIS:CSI15:1,2009-07-07T03:00:00Z,28.8332,-90.8320,10.0,25.45,11111222 
WAVCIS,ioos:station:WAVCIS:CSI15:1,2009-07-07T04:00:00Z,28.8332,-90.8320,10.0,25.56,11111222 
WAVCIS,ioos:station:WAVCIS:CSI15:1,2009-07-07T05:00:00Z,28.8332,-90.8320,10.0,25.53,11111222 
WAVCIS,ioos:station:WAVCIS:CSI15:1,2009-07-07T06:00:00Z,28.8332,-90.8320,10.0,25.91,11111222 
WAVCIS,ioos:station:WAVCIS:CSI15:1,2009-07-07T07:00:00Z,28.8332,-90.8320,10.0,25.7,11111222 
WAVCIS,ioos:station:WAVCIS:CSI15:1,2009-07-07T08:00:00Z,28.8332,-90.8320,10.0,25.71,11111222 
WAVCIS,ioos:station:WAVCIS:CSI15:1,2009-07-07T09:00:00Z,28.8332,-90.8320,10.0,26.63,11111222 
WAVCIS,ioos:station:WAVCIS:CSI15:1,2009-07-07T10:00:00Z,28.8332,-90.8320,10.0,29.51,11111222 
WAVCIS,ioos:station:WAVCIS:CSI15:1,2009-07-07T11:00:00Z,28.8332,-90.8320,10.0,26.38,11111222 
WAVCIS,ioos:station:WAVCIS:CSI15:1,2009-07-07T12:00:00Z,28.8332,-90.8320,10.0,26.08,11111222 
WAVCIS,ioos:station:WAVCIS:CSI15:1,2009-07-07T13:00:00Z,28.8332,-90.8320,10.0,26.29,11111222 
WAVCIS,ioos:station:WAVCIS:CSI15:1,2009-07-07T14:00:00Z,28.8332,-90.8320,10.0,25.98,11111222 
WAVCIS,ioos:station:WAVCIS:CSI15:1,2009-07-07T15:00:00Z,28.8332,-90.8320,10.0,25.33,11111222 
WAVCIS,ioos:station:WAVCIS:CSI15:1,2009-07-07T16:00:00Z,28.8332,-90.8320,10.0,25.11,11111222 
WAVCIS,ioos:station:WAVCIS:CSI15:1,2009-07-07T17:00:00Z,28.8332,-90.8320,10.0,25.82,11111222 
WAVCIS,ioos:station:WAVCIS:CSI15:1,2009-07-07T18:00:00Z,28.8332,-90.8320,10.0,25.25,11111222 
WAVCIS,ioos:station:WAVCIS:CSI15:1,2009-07-07T19:00:00Z,28.8332,-90.8320,10.0,25.18,11111222 
WAVCIS,ioos:station:WAVCIS:CSI15:1,2009-07-07T20:00:00Z,28.8332,-90.8320,10.0,25.24,11111222 
WAVCIS,ioos:station:WAVCIS:CSI15:1,2009-07-07T21:00:00Z,28.8332,-90.8320,10.0,25.35,11111222 
WAVCIS,ioos:station:WAVCIS:CSI15:1,2009-07-07T22:00:00Z,28.8332,-90.8320,10.0,25.9,11111222 
WAVCIS,ioos:station:WAVCIS:CSI15:1,2009-07-07T23:00:00Z,28.8332,-90.8320,10.0,26.34,11111222 
WAVCIS,ioos:station:WAVCIS:CSI15:1,2009-07-08T00:00:00Z,28.8332,-90.8320,10.0,25.99,11111222 
WAVCIS,ioos:station:WAVCIS:CSI15:1,2009-07-08T01:00:00Z,28.8332,-90.8320,10.0,25.68,11111222 
WAVCIS,ioos:station:WAVCIS:CSI15:1,2009-07-08T02:00:00Z,28.8332,-90.8320,10.0,25.2,11111222 
WAVCIS,ioos:station:WAVCIS:CSI15:1,2009-07-08T03:00:00Z,28.8332,-90.8320,10.0,25.14,11111222 
WAVCIS,ioos:station:WAVCIS:CSI15:1,2009-07-08T04:00:00Z,28.8332,-90.8320,10.0,25.34,11111222 
WAVCIS,ioos:station:WAVCIS:CSI15:1,2009-07-08T05:00:00Z,28.8332,-90.8320,10.0,25.43,11111222 
WAVCIS,ioos:station:WAVCIS:CSI15:1,2009-07-08T06:00:00Z,28.8332,-90.8320,10.0,25.39,11111222 
WAVCIS,ioos:station:WAVCIS:CSI15:1,2009-07-08T07:00:00Z,28.8332,-90.8320,10.0,25.39,11111222 
WAVCIS,ioos:station:WAVCIS:CSI15:1,2009-07-08T08:00:00Z,28.8332,-90.8320,10.0,25.47,11111222 
WAVCIS,ioos:station:WAVCIS:CSI15:1,2009-07-08T09:00:00Z,28.8332,-90.8320,10.0,25.63,11111222 
WAVCIS,ioos:station:WAVCIS:CSI15:1,2009-07-08T10:00:00Z,28.8332,-90.8320,10.0,25.98,11111222 
WAVCIS,ioos:station:WAVCIS:CSI15:1,2009-07-08T11:00:00Z,28.8332,-90.8320,10.0,25.73,11111222 
WAVCIS,ioos:station:WAVCIS:CSI15:1,2009-07-08T12:00:00Z,28.8332,-90.8320,10.0,25.38,11111222 
WAVCIS,ioos:station:WAVCIS:CSI15:1,2009-07-08T13:00:00Z,28.8332,-90.8320,10.0,25.12,11111222 
WAVCIS,ioos:station:WAVCIS:CSI15:1,2009-07-08T14:00:00Z,28.8332,-90.8320,10.0,25.08,11111222 
WAVCIS,ioos:station:WAVCIS:CSI15:1,2009-07-08T15:00:00Z,28.8332,-90.8320,10.0,25.12,11111222 
WAVCIS,ioos:station:WAVCIS:CSI15:1,2009-07-08T16:00:00Z,28.8332,-90.8320,10.0,25.06,11111222 
WAVCIS,ioos:station:WAVCIS:CSI15:1,2009-07-08T17:00:00Z,28.8332,-90.8320,10.0,25.18,11111222 
WAVCIS,ioos:station:WAVCIS:CSI15:1,2009-07-08T18:00:00Z,28.8332,-90.8320,10.0,25.45,11111222 
WAVCIS,ioos:station:WAVCIS:CSI15:1,2009-07-08T19:00:00Z,28.8332,-90.8320,10.0,25.2,11111222 
WAVCIS,ioos:station:WAVCIS:CSI15:1,2009-07-08T20:00:00Z,28.8332,-90.8320,10.0,25.21,11111222 
WAVCIS,ioos:station:WAVCIS:CSI15:1,2009-07-08T21:00:00Z,28.8332,-90.8320,10.0,24.97,11111222 
WAVCIS,ioos:station:WAVCIS:CSI15:1,2009-07-08T22:00:00Z,28.8332,-90.8320,10.0,25.0,11111222 
WAVCIS,ioos:station:WAVCIS:CSI15:1,2009-07-08T23:00:00Z,28.8332,-90.8320,10.0,24.97,11111222 
WAVCIS,ioos:station:WAVCIS:CSI15:1,2009-07-09T00:00:00Z,28.8332,-90.8320,10.0,25.06,11111222 
WAVCIS,ioos:station:WAVCIS:CSI15:1,2009-07-09T01:00:00Z,28.8332,-90.8320,10.0,25.39,11111222 
WAVCIS,ioos:station:WAVCIS:CSI15:1,2009-07-09T02:00:00Z,28.8332,-90.8320,10.0,25.96,11111222 
WAVCIS,ioos:station:WAVCIS:CSI15:1,2009-07-09T03:00:00Z,28.8332,-90.8320,10.0,27.03,11111222 
WAVCIS,ioos:station:WAVCIS:CSI15:1,2009-07-09T04:00:00Z,28.8332,-90.8320,10.0,27.27,11111222 
WAVCIS,ioos:station:WAVCIS:CSI15:1,2009-07-09T05:00:00Z,28.8332,-90.8320,10.0,26.67,11111222 
WAVCIS,ioos:station:WAVCIS:CSI15:1,2009-07-09T06:00:00Z,28.8332,-90.8320,10.0,26.48,11111222 
WAVCIS,ioos:station:WAVCIS:CSI15:1,2009-07-09T07:00:00Z,28.8332,-90.8320,10.0,26.91,11111222 
WAVCIS,ioos:station:WAVCIS:CSI15:1,2009-07-09T08:00:00Z,28.8332,-90.8320,10.0,27.18,11111222 
WAVCIS,ioos:station:WAVCIS:CSI15:1,2009-07-09T09:00:00Z,28.8332,-90.8320,10.0,25.62,11111222 
WAVCIS,ioos:station:WAVCIS:CSI15:1,2009-07-09T10:00:00Z,28.8332,-90.8320,10.0,25.89,11111222 
WAVCIS,ioos:station:WAVCIS:CSI15:1,2009-07-09T11:00:00Z,28.8332,-90.8320,10.0,28.66,11111222 
WAVCIS,ioos:station:WAVCIS:CSI15:1,2009-07-09T12:00:00Z,28.8332,-90.8320,10.0,28.57,11111222 
WAVCIS,ioos:station:WAVCIS:CSI15:1,2009-07-09T13:00:00Z,28.8332,-90.8320,10.0,28.04,11111222 
WAVCIS,ioos:station:WAVCIS:CSI15:1,2009-07-09T14:00:00Z,28.8332,-90.8320,10.0,27.19,11111222 
WAVCIS,ioos:station:WAVCIS:CSI15:1,2009-07-09T15:00:00Z,28.8332,-90.8320,10.0,27.24,11111222 
WAVCIS,ioos:station:WAVCIS:CSI15:1,2009-07-09T16:00:00Z,28.8332,-90.8320,10.0,27.13,11111222 
WAVCIS,ioos:station:WAVCIS:CSI15:1,2009-07-09T17:00:00Z,28.8332,-90.8320,10.0,25.65,11111222 
WAVCIS,ioos:station:WAVCIS:CSI15:1,2009-07-09T18:00:00Z,28.8332,-90.8320,10.0,25.23,11111222 
WAVCIS,ioos:station:WAVCIS:CSI15:1,2009-07-09T19:00:00Z,28.8332,-90.8320,10.0,25.07,11111222 
WAVCIS,ioos:station:WAVCIS:CSI15:1,2009-07-09T20:00:00Z,28.8332,-90.8320,10.0,25.01,11111222 
WAVCIS,ioos:station:WAVCIS:CSI15:1,2009-07-09T21:00:00Z,28.8332,-90.8320,10.0,25.05,11111222 
WAVCIS,ioos:station:WAVCIS:CSI15:1,2009-07-09T22:00:00Z,28.8332,-90.8320,10.0,25.06,11111222 
WAVCIS,ioos:station:WAVCIS:CSI15:1,2009-07-09T23:00:00Z,28.8332,-90.8320,10.0,25.83,11111222 
WAVCIS,ioos:station:WAVCIS:CSI15:1,2009-07-10T00:00:00Z,28.8332,-90.8320,10.0,25.94,11111222 
WAVCIS,ioos:station:WAVCIS:CSI15:1,2009-07-10T01:00:00Z,28.8332,-90.8320,10.0,26.3,11111222 
WAVCIS,ioos:station:WAVCIS:CSI15:1,2009-07-10T02:00:00Z,28.8332,-90.8320,10.0,25.76,11111222 
WAVCIS,ioos:station:WAVCIS:CSI15:1,2009-07-10T03:00:00Z,28.8332,-90.8320,10.0,25.57,11111222 
WAVCIS,ioos:station:WAVCIS:CSI15:1,2009-07-10T04:00:00Z,28.8332,-90.8320,10.0,25.75,11111222 
WAVCIS,ioos:station:WAVCIS:CSI15:1,2009-07-10T05:00:00Z,28.8332,-90.8320,10.0,25.94,11111222 
WAVCIS,ioos:station:WAVCIS:CSI15:1,2009-07-10T06:00:00Z,28.8332,-90.8320,10.0,25.79,11111222 
WAVCIS,ioos:station:WAVCIS:CSI15:1,2009-07-10T07:00:00Z,28.8332,-90.8320,10.0,25.55,11111222 
WAVCIS,ioos:station:WAVCIS:CSI15:1,2009-07-10T08:00:00Z,28.8332,-90.8320,10.0,27.41,11111222 
WAVCIS,ioos:station:WAVCIS:CSI15:1,2009-07-10T09:00:00Z,28.8332,-90.8320,10.0,27.49,11111222 
WAVCIS,ioos:station:WAVCIS:CSI15:1,2009-07-10T10:00:00Z,28.8332,-90.8320,10.0,26.76,11111222 
WAVCIS,ioos:station:WAVCIS:CSI15:1,2009-07-10T11:00:00Z,28.8332,-90.8320,10.0,25.72,11111222 
WAVCIS,ioos:station:WAVCIS:CSI15:1,2009-07-10T12:00:00Z,28.8332,-90.8320,10.0,25.67,11111222 
WAVCIS,ioos:station:WAVCIS:CSI15:1,2009-07-10T13:00:00Z,28.8332,-90.8320,10.0,25.52,11111222 
WAVCIS,ioos:station:WAVCIS:CSI15:1,2009-07-10T14:00:00Z,28.8332,-90.8320,10.0,25.53,11111222 
WAVCIS,ioos:station:WAVCIS:CSI15:1,2009-07-10T15:00:00Z,28.8332,-90.8320,10.0,26.32,11111222 
WAVCIS,ioos:station:WAVCIS:CSI15:1,2009-07-10T16:00:00Z,28.8332,-90.8320,10.0,25.79,11111222 
WAVCIS,ioos:station:WAVCIS:CSI15:1,2009-07-10T17:00:00Z,28.8332,-90.8320,10.0,25.14,11111222 
WAVCIS,ioos:station:WAVCIS:CSI15:1,2009-07-10T18:00:00Z,28.8332,-90.8320,10.0,25.02,11111222 
WAVCIS,ioos:station:WAVCIS:CSI15:1,2009-07-10T19:00:00Z,28.8332,-90.8320,10.0,25.22,11111222 
WAVCIS,ioos:station:WAVCIS:CSI15:1,2009-07-10T20:00:00Z,28.8332,-90.8320,10.0,25.28,11111222 
WAVCIS,ioos:station:WAVCIS:CSI15:1,2009-07-10T21:00:00Z,28.8332,-90.8320,10.0,25.12,11111222 
WAVCIS,ioos:station:WAVCIS:CSI15:1,2009-07-10T22:00:00Z,28.8332,-90.8320,10.0,25.2,11111222 
WAVCIS,ioos:station:WAVCIS:CSI15:1,2009-07-10T23:00:00Z,28.8332,-90.8320,10.0,25.49,11111222 
WAVCIS,ioos:station:WAVCIS:CSI15:1,2009-07-11T00:00:00Z,28.8332,-90.8320,10.0,25.48,11111222 
WAVCIS,ioos:station:WAVCIS:CSI15:1,2009-07-11T01:00:00Z,28.8332,-90.8320,10.0,25.38,11111222 
WAVCIS,ioos:station:WAVCIS:CSI15:1,2009-07-11T02:00:00Z,28.8332,-90.8320,10.0,25.75,11111222 
WAVCIS,ioos:station:WAVCIS:CSI15:1,2009-07-11T03:00:00Z,28.8332,-90.8320,10.0,25.72,11111222 
WAVCIS,ioos:station:WAVCIS:CSI15:1,2009-07-11T04:00:00Z,28.8332,-90.8320,10.0,26.52,11111222 
WAVCIS,ioos:station:WAVCIS:CSI15:1,2009-07-11T05:00:00Z,28.8332,-90.8320,10.0,25.64,11111222 
WAVCIS,ioos:station:WAVCIS:CSI15:1,2009-07-11T06:00:00Z,28.8332,-90.8320,10.0,25.41,11111222 
WAVCIS,ioos:station:WAVCIS:CSI15:1,2009-07-11T07:00:00Z,28.8332,-90.8320,10.0,25.41,11111222 
WAVCIS,ioos:station:WAVCIS:CSI15:1,2009-07-11T08:00:00Z,28.8332,-90.8320,10.0,25.22,11111222 
WAVCIS,ioos:station:WAVCIS:CSI15:1,2009-07-11T09:00:00Z,28.8332,-90.8320,10.0,25.11,11111222 
WAVCIS,ioos:station:WAVCIS:CSI15:1,2009-07-11T10:00:00Z,28.8332,-90.8320,10.0,25.05,11111222 
WAVCIS,ioos:station:WAVCIS:CSI15:1,2009-07-11T11:00:00Z,28.8332,-90.8320,10.0,25.04,11111222 
WAVCIS,ioos:station:WAVCIS:CSI15:1,2009-07-11T12:00:00Z,28.8332,-90.8320,10.0,25.09,11111222 
WAVCIS,ioos:station:WAVCIS:CSI15:1,2009-07-11T13:00:00Z,28.8332,-90.8320,10.0,25.26,11111222 